Regional Weather Roundup
Issued by NWS Sioux Falls, SD

Home | Current Version | Previous Version | Graphics & Text | Print | Product List | Glossary Off
Versions: 1 2 3 4 5 6 7 8 9 10 11 12 13 14 15 16 17 18 19 20 21 22 23 24 25 26 27 28 29 30 31 32 33 34 35 36 37 38 39 40 41 42 43 44 45 46 47 48 49 50

000
ASUS43 KFSD 192002
RWRFSD

WEATHER ROUNDUP FOR SE SOUTH DAKOTA/SW MINNESOTA/NW IOWA
NATIONAL WEATHER SERVICE SIOUX FALLS SD
300 PM CDT FRI SEP 19 2014

NOTE: "FAIR" INDICATES FEW OR NO CLOUDS BELOW 12,000 FEET WITH NO
SIGNIFICANT WEATHER AND OR OBSTRUCTIONS TO VISIBILITY.


SDZ038>040-050-052>070-192100-
SOUTHEAST SOUTH DAKOTA

CITY           SKY/WX    TMP DP  RH WIND       PRES   REMARKS
CHAMBERLAIN    PTSUNNY   86  57  37 NW8       29.71S
HURON          PTSUNNY   83  63  50 W9        29.66S
MADISON        FAIR      79  66  65 SW13G20   29.70S
MITCHELL       MOSUNNY   85  67  54 SW10      29.68F
SIOUX FALLS    MOSUNNY   86  64  47 SW13G23   29.69F
WINNER         FAIR      89  54  30 NW13      29.74S
YANKTON        SUNNY     90  64  43 SW21      29.69F
$$

MNZ071-072-080-081-089-090-097-098-192100-
SOUTHWEST MINNESOTA

CITY           SKY/WX    TMP DP  RH WIND       PRES   REMARKS
FAIRMONT       SUNNY     82  61  47 S21G35    29.69F
JACKSON        SUNNY     82  63  51 SW21G32   29.71S
LUVERNE        MOSUNNY   86  63  45 SW20G26   29.70F
MARSHALL       PTSUNNY   81  64  57 W14G21    29.66F
MONTEVIDEO     CLOUDY    77  66  69 SW7       29.66F
PIPESTONE      MOSUNNY   82  64  54 W14       29.70F
REDWOOD FALLS  PTSUNNY   77  64  64 SW7       29.67F
TRACY          PTSUNNY   81  66  61 SW13      29.68F
WINDOM         MOSUNNY   84  63  48 SW25G32   29.70R
WORTHINGTON    MOSUNNY   81  64  57 SW22G28   29.71F
$$

IAZ001>003-012>014-020>022-031-032-NEZ013-014-SDZ071-192100-
NORTHWEST IOWA

CITY           SKY/WX    TMP DP  RH WIND       PRES   REMARKS
CHEROKEE       SUNNY     83  67  57 S25G33    29.75F
DENISON        SUNNY     79  68  69 SW18G30   29.80F
ESTHERVILLE    SUNNY     82  64  54 SW24G33   29.70F
LE MARS        SUNNY     86  68  54 S21G35    29.72S
ORANGE CITY    SUNNY     84  64  51 S22G29    29.72F
SHELDON        SUNNY     82  66  57 SW22G35   29.70F
SIOUX CITY     SUNNY     88  66  48 S17G25    29.75F
SPENCER        MOSUNNY   82  64  54 S23G35    29.72F
STORM LAKE     SUNNY     81  70  69 S22G29    29.78F
$$

ABBREVIATIONS USED IN REMARKS
   TC - TEMPERATURE IN CELSIUS
  WCI - WIND CHILL INDEX
   HX - HEAT INDEX
  VSB - VISIBILITY




USA.gov is the U.S. government's official web portal to all federal, state and local government web resources and services.